Skip Page Navigation
NASA JPL Caltech
NASA Logo - Jet Propulsion Laboratory + View the NASA Portal
+ Center for Near-Earth Object Studies
JPL Home Earth Solar System Stars & Galaxies Technology
JPL Solar System Dynamics
BODIES ORBITS EPHEMERIDES TOOLS PHYSICAL DATA DISCOVERY FAQ SITE MAP

Significant website upgrade scheduled for September 27. More details available here.

JPL Small-Body Database Browser
Search: [ help ]  
67247 (2000 EA82)
Classification: Main-belt Asteroid          SPK-ID: 2067247
Ephemeris | Orbit Diagram | Orbital Elements | Mission Design | Physical Parameters | Discovery Circumstances ]

[ hide orbit diagram ]

For accurate long-term ephemerides, please instead use our Horizons system.This orbit viewer was implemented using two-body methods, and hence should not be used for determining accurate long-term trajectories (over several years or decades) or planetary encounter circumstances.


Orbital Elements at Epoch 2459396.5 (2021-Jul-01.0) TDB
Reference: JPL 33 (heliocentric ecliptic J2000)
 Element Value Uncertainty (1-sigma)   Units 
e .1213721168378732 5.7341e-08  
a 2.305932297533176 7.3393e-09 au
q 2.026056413296754 1.3166e-07 au
i 4.020954159100711 3.584e-06 deg
node 55.85464902445365 7.019e-05 deg
peri 110.294647634592 7.1306e-05 deg
M 31.69915654496586 1.1963e-05 deg
tp 2459283.880534706766
(2021-Mar-10.38053471)
4.2545e-05 TDB
period 1278.993258008404
3.50
6.1062e-06
1.672e-08
d
yr
n .2814713820779457 1.3438e-09 deg/d
Q 2.585808181769598 8.2301e-09 au
  Orbit Determination Parameters
   # obs. used (total)      1010  
   data-arc span      8299 days (22.72 yr)  
   first obs. used      1998-09-17  
   last obs. used      2021-06-07  
   planetary ephem.      DE441  
   SB-pert. ephem.      SB441-N16  
   condition code      0  
   norm. resid. RMS      .50847  
   source      ORB  
   producer      Otto Matic  
   solution date      2021-Jul-08 22:35:04  

Additional Information
 Earth MOID = 1.03776 au 
 Jupiter MOID = 2.38569 au 
 T_jup = 3.575 
[ hide covariance matrix ]
Orbital Elements at Epoch 2457329.5 (2015-Nov-03.0) TDB
Reference: JPL 33 (heliocentric ecliptic J2000)
 Element Value Uncertainty (1-sigma)   Units 
e .1211457231456565 5.7525e-08  
q 2.026972662133989 1.3208e-07 au
tp 2456726.457155960184
(2014-Mar-09.95715596)
4.5312e-05 TDB
node 55.86973997117768 7.0182e-05 deg
peri 110.566052099971 7.129e-05 deg
i 4.021400198548335 3.5852e-06 deg
  Orbit Determination Parameters
   # obs. used (total)      1010  
   data-arc span      8299 days (22.72 yr)  
   first obs. used      1998-09-17  
   last obs. used      2021-06-07  
   planetary ephem.      DE441  
   SB-pert. ephem.      SB441-N16  
   condition code      0  
   norm. resid. RMS      .50847  
   source      ORB  
   producer      Otto Matic  
   solution date      2021-Jul-08 22:35:04  

Additional Information
 Jupiter MOID = 2.38569 au 
 T_jup = 3.575 
Orbit Covariance (6×6)
  e q tp node peri i
e 3.309097011114443E-15 -7.588806175052079E-15 3.513657934025099E-13 -1.189598001758746E-15 1.879251046520383E-13 -4.83539940492894E-15
q -7.588806175052079E-15 1.744463271075438E-14 -9.155080598529072E-13 2.286101347723838E-15 -4.563427682160689E-13 1.115145365989684E-14
tp 3.513657934025099E-13 -9.155080598529072E-13 2.053187804314623E-9 6.928504539074282E-12 5.91579740697953E-10 -6.596706898063297E-13
node -1.189598001758746E-15 2.286101347723838E-15 6.928504539074282E-12 4.925466757123662E-9 -4.911626584532124E-9 -1.196323675478422E-10
peri 1.879251046520383E-13 -4.563427682160689E-13 5.91579740697953E-10 -4.911626584532124E-9 5.08221416455385E-9 1.190408214607048E-10
i -4.83539940492894E-15 1.115145365989684E-14 -6.596706898063297E-13 -1.196323675478422E-10 1.190408214607048E-10 1.285346657493902E-11

Ephemeris | Orbit Diagram | Orbital Elements | Mission Design | Physical Parameters | Discovery Circumstances ]

Physical Parameter Table
Parameter Symbol Value Units Sigma Reference Notes
absolute magnitude H 15.91   n/a MPCxxxxx  
diameter diameter 1.900 km 0.148 urn:nasa:pds:neowise_diameters_albedos::2.0[mainbelt] (http://adsabs.harvard.edu/abs/2011ApJ...741...68M)  
geometric albedo albedo 0.178   0.014 urn:nasa:pds:neowise_diameters_albedos::2.0[mainbelt] (http://adsabs.harvard.edu/abs/2011ApJ...741...68M)  

67247 (2000 EA82)          Discovered 2000-Mar-05 by LINEAR at Socorro
Reference: 20030910/Numbers.arcLast Updated: 2004-04-19

Alternate Designations
 2000 EA82 = 1998 SV17 
Ephemeris | Orbit Diagram | Orbital Elements | Mission Design | Physical Parameters | Discovery Circumstances ]
ABOUT SSD CREDITS/AWARDS PRIVACY/COPYRIGHT GLOSSARY LINKS
FirstGov 2021-Sep-23 08:50 UT
(server date/time)  
NASA Home Page
Site Manager:   Ryan S. Park
Webmaster  Alan B. Chamberlin